SpaceVan 1

operational
NORAD ID: 58295 Int'l Des: 2023-174 Owner: EXOTR Country: F
LEOCIRCULARRETROGRADE

About SpaceVan 1

Description loading...

Live Position

Loading 3D Globe...

Upcoming Passes

Altitude History

Altitude vs Time

uPlot chart will show altitude changes over time

Two-Line Element Set

1 58295U 23174AR 26062.18359022 .00016824 00000-0 23514-3 0 9991
2 58295 97.3869 155.2430 0010329 109.6330 250.6041 15.56858533129649
Epoch: Mar 3, 2026 • Age: 19 hours

Current Status

Altitude 400.4 km
Velocity 7.68 km/s
Sub-Earth Point 61.92°N, 93.57°W
Launch Date Nov 11, 2023
Age 2.3 years
Type other

Technical Details

Classification Payload
Mass 125.00 kg
Dry Mass 120.00 kg
Total Mass 125.00 kg
Length 0.30 m
Diameter 0.50 m
Span 3.50 m
Shape Box+ 2 pan
Manufacturer NANAV
Bus Type MP42
Phase Status In Orbit
Owner/State EXOTR/F

Large Constellations

Loading constellations...